TimeCDT,TemperatureF,Dew PointF,Humidity,Sea Level PressureIn,VisibilityMPH,Wind Direction,Wind SpeedMPH,Gust SpeedMPH,PrecipitationIn,Events,Conditions,WindDirDegrees,DateUTC
12:53 AM,68.0,63.0,84,30.02,10.0,South,8.1,-,N/A,,Clear,180,2013-08-19 05:53:00
1:53 AM,68.0,63.0,84,30.01,10.0,South,11.5,-,N/A,,Clear,180,2013-08-19 06:53:00
2:53 AM,68.0,63.0,84,30.00,10.0,South,11.5,-,N/A,,Clear,180,2013-08-19 07:53:00
3:53 AM,66.9,62.1,84,30.00,10.0,South,8.1,-,N/A,,Clear,180,2013-08-19 08:53:00
4:53 AM,66.0,62.1,87,29.99,10.0,South,8.1,-,N/A,,Clear,170,2013-08-19 09:53:00
5:53 AM,64.9,62.1,90,29.99,9.0,South,8.1,-,N/A,,Clear,170,2013-08-19 10:53:00
6:53 AM,64.0,62.1,93,29.99,6.0,South,8.1,-,N/A,,Clear,170,2013-08-19 11:53:00
7:53 AM,66.9,63.0,87,30.01,8.0,South,8.1,-,N/A,,Clear,180,2013-08-19 12:53:00
8:53 AM,70.0,64.0,81,30.01,10.0,South,11.5,-,N/A,,Clear,190,2013-08-19 13:53:00
9:53 AM,73.9,64.0,71,30.00,10.0,SSW,13.8,-,N/A,,Clear,200,2013-08-19 14:53:00
10:53 AM,77.0,64.9,66,29.99,10.0,SSW,16.1,-,N/A,,Clear,200,2013-08-19 15:53:00
11:53 AM,80.1,66.0,62,29.98,10.0,South,16.1,-,N/A,,Clear,180,2013-08-19 16:53:00
12:53 PM,82.0,66.9,60,29.97,10.0,South,16.1,-,N/A,,Clear,190,2013-08-19 17:53:00
1:53 PM,84.0,66.9,56,29.96,10.0,SSW,13.8,21.9,N/A,,Clear,210,2013-08-19 18:53:00
2:53 PM,86.0,68.0,55,29.95,10.0,South,15.0,-,N/A,,Clear,180,2013-08-19 19:53:00
3:53 PM,86.0,68.0,55,29.93,10.0,South,15.0,-,N/A,,Clear,190,2013-08-19 20:53:00
4:53 PM,86.0,66.9,53,29.93,10.0,SSW,11.5,-,N/A,,Clear,200,2013-08-19 21:53:00
5:53 PM,86.0,66.9,53,29.91,10.0,SSW,13.8,-,N/A,,Clear,210,2013-08-19 22:53:00
6:53 PM,84.9,68.0,57,29.90,10.0,South,11.5,-,N/A,,Clear,190,2013-08-19 23:53:00
7:53 PM,81.0,69.1,67,29.89,10.0,South,6.9,-,N/A,,Clear,180,2013-08-20 00:53:00
8:53 PM,77.0,68.0,74,29.90,10.0,South,8.1,-,N/A,,Clear,170,2013-08-20 01:53:00
9:53 PM,75.9,68.0,76,29.90,10.0,South,9.2,-,N/A,,Clear,190,2013-08-20 02:53:00
10:53 PM,75.9,66.0,71,29.90,10.0,South,10.4,-,N/A,,Clear,190,2013-08-20 03:53:00
11:53 PM,75.9,66.0,71,29.90,10.0,South,9.2,-,N/A,,Clear,190,2013-08-20 04:53:00